Regional Weather Roundup
Issued by NWS Albany, NY

Home | Current Version | Previous Version | Text Only | Print | Product List | Glossary On
Versions: 1 2 3 4 5 6 7 8 9 10 11 12 13 14 15 16 17 18 19 20 21 22 23 24 25 26 27 28 29 30 31 32 33 34 35 36 37 38 39 40 41 42 43 44 45 46 47 48 49 50
962
ASUS41 KALY 170010
RWRALY

NEW YORK STATE HOURLY WEATHER ROUNDUP
NATIONAL WEATHER SERVICE ALBANY NY
700 PM EST THU NOV 16 2017

NOTE: "FAIR" INDICATES FEW OR NO CLOUDS BELOW 12,000 FEET WITH NO
SIGNIFICANT WEATHER AND/OR NO OBSTRUCTIONS TO VISIBILITY.

NYZ032-033-038>043-046>054-057>066-NYZ062>081-082-084-170100-
EAST


CITY           SKY/WX    TMP DP  RH WIND       PRES   REMARKS
ALBANY         MOCLDY    45  33  63 W16G31    29.78R
GLENS FALLS    MOCLDY    42  36  79 SW6       29.73R
POUGHKEEPSIE   PTCLDY    45  34  65 W13G24    29.82R
NEWBURGH       PTCLDY    45  37  76 NW14      29.83R
MONTGOMERY     MOCLDY    44  35  70 VRB5      29.83R
WHITE PLAINS   PTCLDY    47  33  58 W12G18    29.82R
ISLIP          PTCLDY    47  35  63 W12       29.82R
NEW YORK CITY  PTCLDY    50  33  52 NW22G35   29.84R
CENTRAL PARK   CLEAR     49  33  54 W12G24    29.87R
$$

NYZ005>009-017-018-044>046-055-056-170100-
CENTRAL


CITY           SKY/WX    TMP DP  RH WIND       PRES   REMARKS
FULTON         LGT RAIN  40  34  79 NW22G31   29.87R WCI  30
SYRACUSE       LGT RAIN  39  36  89 W13       29.86R WCI  31
ROME           CLOUDY    39  36  89 W16G25    29.84R WCI  30
ELMIRA         LGT RAIN  40  36  86 W9        29.92R WCI  34
BINGHAMTON     CLOUDY    36  32  85 NW13G21   29.85R WCI  27
MONTICELLO     CLOUDY    38  34  85 W9G16     29.82R WCI  31
$$

NYZ026>034-041>043-087-170100-
NORTH


CITY           SKY/WX    TMP DP  RH WIND       PRES   REMARKS
WATERTOWN      CLOUDY    39  34  82 W15G26    29.84R WCI  31
FORT DRUM      NOT AVBL
OGDENSBURG     MOCLDY    38  35  87 NW15G26   29.79R WCI  30
MASSENA        LGT RAIN  39  37  92 W14G25    29.74R WCI  31
SARANAC LAKE   MIX PCPN  36  36 100 W8        29.65R WCI  30
PLATTSBURGH    PTCLDY    42  35  76 CALM      29.67S
$$

NYZ001>004-010>016-019>021-085-170100-
WEST


CITY           SKY/WX    TMP DP  RH WIND       PRES   REMARKS
NIAGARA FALLS  CLOUDY    41  28  60 NW18G29   30.02R
BUFFALO        MOCLDY    39  31  72 NW14G24   30.01R WCI  31
DUNKIRK        CLOUDY    40  31  70 W18G29    30.07R WCI  31
JAMESTOWN      CLOUDY    35  30  82 NW18G30   30.02  WCI  24
WELLSVILLE     CLOUDY    36  31  82 W21G29    29.94R WCI  25
ROCHESTER      CLOUDY    40  33  76 NW16G33   29.96R WCI  31
PENN YAN       LGT RAIN  38  32  79 NW20G33   29.92R WCI  28
$$

             KEY
       WCI = WIND CHILL INDEX
       VSB = VISIBILITY
       HX  = HEAT INDEX
$$




USA.gov is the U.S. government's official web portal to all federal, state and local government web resources and services.